Year,Month,Day,Hour,Minute,Value (Times are PST for temperature in C)
2022,04,17,00,00,1.40
2022,04,17,00,01,1.40
2022,04,17,00,02,1.40
2022,04,17,00,03,1.30
2022,04,17,00,04,1.30
2022,04,17,00,05,1.30
2022,04,17,00,06,1.20
2022,04,17,00,07,1.20
2022,04,17,00,08,1.10
2022,04,17,00,09,1.10
2022,04,17,00,10,1.10
2022,04,17,00,11,1.10
2022,04,17,00,12,1.00
2022,04,17,00,13,1.00
2022,04,17,00,14,1.00
2022,04,17,00,15,1.00
2022,04,17,00,16,1.00
2022,04,17,00,17,0.90
2022,04,17,00,18,0.90
2022,04,17,00,19,0.90
2022,04,17,00,20,0.90
2022,04,17,00,21,0.80
2022,04,17,00,22,0.80
2022,04,17,00,23,0.80
2022,04,17,00,24,0.80
2022,04,17,00,25,0.70
2022,04,17,00,26,0.70
2022,04,17,00,27,0.70
2022,04,17,00,28,0.70
2022,04,17,00,29,0.70
2022,04,17,00,30,0.70
2022,04,17,00,31,0.70
2022,04,17,00,32,0.70
2022,04,17,00,33,0.70
2022,04,17,00,34,0.70
2022,04,17,00,35,0.70
2022,04,17,00,36,0.70
2022,04,17,00,37,0.70
2022,04,17,00,38,0.70
2022,04,17,00,39,0.60
2022,04,17,00,40,0.60
2022,04,17,00,41,0.60
2022,04,17,00,42,0.60
2022,04,17,00,43,0.60
2022,04,17,00,44,0.60
2022,04,17,00,45,0.50
2022,04,17,00,46,0.50
2022,04,17,00,47,0.50
2022,04,17,00,48,0.50
2022,04,17,00,49,0.50
2022,04,17,00,50,0.50
2022,04,17,00,51,0.50
2022,04,17,00,52,0.40
2022,04,17,00,53,0.40
2022,04,17,00,54,0.40
2022,04,17,00,55,0.40
2022,04,17,00,56,0.40
2022,04,17,00,57,0.40
2022,04,17,00,58,0.40
2022,04,17,00,59,0.40
2022,04,17,01,00,0.40
2022,04,17,01,01,0.40
2022,04,17,01,02,0.40
2022,04,17,01,03,0.40
2022,04,17,01,04,0.40
2022,04,17,01,05,0.40
2022,04,17,01,06,0.40
2022,04,17,01,07,0.40
2022,04,17,01,08,0.40
2022,04,17,01,09,0.40
2022,04,17,01,10,0.40
2022,04,17,01,11,0.40
2022,04,17,01,12,0.40
2022,04,17,01,13,0.40
2022,04,17,01,14,0.40
2022,04,17,01,15,0.40
2022,04,17,01,16,0.40
2022,04,17,01,17,0.40
2022,04,17,01,18,0.40
2022,04,17,01,19,0.40
2022,04,17,01,20,0.40
2022,04,17,01,21,0.40
2022,04,17,01,22,0.40
2022,04,17,01,23,0.40
2022,04,17,01,24,0.40
2022,04,17,01,25,0.40
2022,04,17,01,26,0.40
2022,04,17,01,27,0.40
2022,04,17,01,28,0.40
2022,04,17,01,29,0.40
2022,04,17,01,30,0.30
2022,04,17,01,31,0.30
2022,04,17,01,32,0.30
2022,04,17,01,33,0.30
2022,04,17,01,34,0.30
2022,04,17,01,35,0.30
2022,04,17,01,36,0.30
2022,04,17,01,37,0.30
2022,04,17,01,38,0.30
2022,04,17,01,39,0.30
2022,04,17,01,40,0.30
2022,04,17,01,41,0.30
2022,04,17,01,42,0.30
2022,04,17,01,43,0.30
2022,04,17,01,44,0.30
2022,04,17,01,45,0.20
2022,04,17,01,46,0.20
2022,04,17,01,47,0.20
2022,04,17,01,48,0.20
2022,04,17,01,49,0.20
2022,04,17,01,50,0.20
2022,04,17,01,51,0.20
2022,04,17,01,52,0.20
2022,04,17,01,53,0.10
2022,04,17,01,54,0.10
2022,04,17,01,55,0.10
2022,04,17,01,56,0.10
2022,04,17,01,57,0.10
2022,04,17,01,58,0.10
2022,04,17,01,59,0.10
2022,04,17,02,00,0.10
2022,04,17,02,01,0.10
2022,04,17,02,02,0.10
2022,04,17,02,03,0.10
2022,04,17,02,04,0.10
2022,04,17,02,05,0.10
2022,04,17,02,06,0.00
2022,04,17,02,07,0.00
2022,04,17,02,08,0.00
2022,04,17,02,09,0.10
2022,04,17,02,10,0.10
2022,04,17,02,11,0.10
2022,04,17,02,12,0.20
2022,04,17,02,13,0.20
2022,04,17,02,14,0.20
2022,04,17,02,15,0.20
2022,04,17,02,16,0.20
2022,04,17,02,17,0.20
2022,04,17,02,18,0.20
2022,04,17,02,19,0.20
2022,04,17,02,20,0.20
2022,04,17,02,21,0.20
2022,04,17,02,22,0.20
2022,04,17,02,23,0.20
2022,04,17,02,24,0.20
2022,04,17,02,25,0.10
2022,04,17,02,26,0.10
2022,04,17,02,27,0.10
2022,04,17,02,28,0.10
2022,04,17,02,29,0.10
2022,04,17,02,30,0.10
2022,04,17,02,31,0.10
2022,04,17,02,32,0.00
2022,04,17,02,33,0.00
2022,04,17,02,34,0.00
2022,04,17,02,35,0.00
2022,04,17,02,36,0.00
2022,04,17,02,37,0.00
2022,04,17,02,38,-0.10
2022,04,17,02,39,-0.10
2022,04,17,02,40,-0.10
2022,04,17,02,41,-0.10
2022,04,17,02,42,-0.10
2022,04,17,02,43,-0.10
2022,04,17,02,44,-0.10
2022,04,17,02,45,-0.10
2022,04,17,02,46,-0.10
2022,04,17,02,47,-0.10
2022,04,17,02,48,-0.10
2022,04,17,02,49,-0.10
2022,04,17,02,50,-0.10
2022,04,17,02,51,-0.10
2022,04,17,02,52,-0.10
2022,04,17,02,53,-0.10
2022,04,17,02,54,-0.10
2022,04,17,02,55,-0.10
2022,04,17,02,56,-0.10
2022,04,17,02,57,-0.10
2022,04,17,02,58,-0.10
2022,04,17,02,59,-0.10
2022,04,17,03,00,-0.10
2022,04,17,03,01,-0.10
2022,04,17,03,02,-0.20
2022,04,17,03,03,-0.20
2022,04,17,03,04,-0.20
2022,04,17,03,05,-0.20
2022,04,17,03,06,-0.20
2022,04,17,03,07,-0.20
2022,04,17,03,08,-0.20
2022,04,17,03,09,-0.20
2022,04,17,03,10,-0.20
2022,04,17,03,11,-0.20
2022,04,17,03,12,-0.20
2022,04,17,03,13,-0.30
2022,04,17,03,14,-0.30
2022,04,17,03,15,-0.30
2022,04,17,03,16,-0.30
2022,04,17,03,17,-0.30
2022,04,17,03,18,-0.30
2022,04,17,03,19,-0.30
2022,04,17,03,20,-0.30
2022,04,17,03,21,-0.30
2022,04,17,03,22,-0.30
2022,04,17,03,23,-0.30
2022,04,17,03,24,-0.30
2022,04,17,03,25,-0.30
2022,04,17,03,26,-0.30
2022,04,17,03,27,-0.30
2022,04,17,03,28,-0.30
2022,04,17,03,29,-0.30
2022,04,17,03,30,-0.30
2022,04,17,03,31,-0.30
2022,04,17,03,32,-0.30
2022,04,17,03,33,-0.30
2022,04,17,03,34,-0.30
2022,04,17,03,35,-0.30
2022,04,17,03,36,-0.30
2022,04,17,03,37,-0.30
2022,04,17,03,38,-0.30
2022,04,17,03,39,-0.30
2022,04,17,03,40,-0.30
2022,04,17,03,41,-0.30
2022,04,17,03,42,-0.30
2022,04,17,03,43,-0.30
2022,04,17,03,44,-0.30
2022,04,17,03,45,-0.30
2022,04,17,03,46,-0.20
2022,04,17,03,47,-0.20
2022,04,17,03,48,-0.20
2022,04,17,03,49,-0.20
2022,04,17,03,50,-0.10
2022,04,17,03,51,-0.10
2022,04,17,03,52,0.10
2022,04,17,03,53,0.20
2022,04,17,03,54,0.30
2022,04,17,03,55,0.40
2022,04,17,03,56,0.50
2022,04,17,03,57,0.60
2022,04,17,03,58,0.60
2022,04,17,03,59,0.60
2022,04,17,04,00,0.60
2022,04,17,04,01,0.60
2022,04,17,04,02,0.60
2022,04,17,04,03,0.60
2022,04,17,04,04,0.50
2022,04,17,04,05,0.50
2022,04,17,04,06,0.50
2022,04,17,04,07,0.50
2022,04,17,04,08,0.40
2022,04,17,04,09,0.40
2022,04,17,04,10,0.40
2022,04,17,04,11,0.40
2022,04,17,04,12,0.40
2022,04,17,04,13,0.30
2022,04,17,04,14,0.30
2022,04,17,04,15,0.30
2022,04,17,04,16,0.30
2022,04,17,04,17,0.30
2022,04,17,04,18,0.30
2022,04,17,04,19,0.30
2022,04,17,04,20,0.30
2022,04,17,04,21,0.30
2022,04,17,04,22,0.30
2022,04,17,04,23,0.30
2022,04,17,04,24,0.30
2022,04,17,04,25,0.30
2022,04,17,04,26,0.30
2022,04,17,04,27,0.30
2022,04,17,04,28,0.30
2022,04,17,04,29,0.30
2022,04,17,04,30,0.30
2022,04,17,04,31,0.30
2022,04,17,04,32,0.30
2022,04,17,04,33,0.30
2022,04,17,04,34,0.30
2022,04,17,04,35,0.20
2022,04,17,04,36,0.20
2022,04,17,04,37,0.20
2022,04,17,04,38,0.20
2022,04,17,04,39,0.20
2022,04,17,04,40,0.20
2022,04,17,04,41,0.20
2022,04,17,04,42,0.20
2022,04,17,04,43,0.20
2022,04,17,04,44,0.20
2022,04,17,04,45,0.20
2022,04,17,04,46,0.20
2022,04,17,04,47,0.30
2022,04,17,04,48,0.30
2022,04,17,04,49,0.30
2022,04,17,04,50,0.30
2022,04,17,04,51,0.30
2022,04,17,04,52,0.30
2022,04,17,04,53,0.30
2022,04,17,04,54,0.30
2022,04,17,04,55,0.30
2022,04,17,04,56,0.30
2022,04,17,04,57,0.30
2022,04,17,04,58,0.20
2022,04,17,04,59,0.20
2022,04,17,05,00,0.20
2022,04,17,05,01,0.20
2022,04,17,05,02,0.20
2022,04,17,05,03,0.20
2022,04,17,05,04,0.20
2022,04,17,05,05,0.20
2022,04,17,05,06,0.10
2022,04,17,05,07,0.10
2022,04,17,05,08,0.10
2022,04,17,05,09,0.10
2022,04,17,05,10,0.10
2022,04,17,05,11,0.10
2022,04,17,05,12,0.10
2022,04,17,05,13,0.10
2022,04,17,05,14,0.00
2022,04,17,05,15,0.00
2022,04,17,05,16,0.00
2022,04,17,05,17,-0.10
2022,04,17,05,18,-0.10
2022,04,17,05,19,-0.10
2022,04,17,05,20,-0.10
2022,04,17,05,21,-0.10
2022,04,17,05,22,-0.10
2022,04,17,05,23,-0.20
2022,04,17,05,24,-0.20
2022,04,17,05,25,-0.20
2022,04,17,05,26,-0.20
2022,04,17,05,27,-0.20
2022,04,17,05,28,-0.20
2022,04,17,05,29,-0.10
2022,04,17,05,30,-0.10
2022,04,17,05,31,-0.10
2022,04,17,05,32,-0.10
2022,04,17,05,33,-0.10
2022,04,17,05,34,-0.10
2022,04,17,05,35,-0.10
2022,04,17,05,36,-0.10
2022,04,17,05,37,0.00
2022,04,17,05,38,0.00
2022,04,17,05,39,-0.10
2022,04,17,05,40,-0.10
2022,04,17,05,41,-0.10
2022,04,17,05,42,-0.10
2022,04,17,05,43,-0.10
2022,04,17,05,44,-0.10
2022,04,17,05,45,-0.10
2022,04,17,05,46,-0.10
2022,04,17,05,47,-0.10
2022,04,17,05,48,-0.10
2022,04,17,05,49,-0.10
2022,04,17,05,50,0.00
2022,04,17,05,51,0.00
2022,04,17,05,52,0.00
2022,04,17,05,53,0.00
2022,04,17,05,54,0.00
2022,04,17,05,55,0.00
2022,04,17,05,56,0.10
2022,04,17,05,57,0.10
2022,04,17,05,58,0.10
2022,04,17,05,59,0.10
2022,04,17,06,00,0.10
2022,04,17,06,01,0.20
2022,04,17,06,02,0.20
2022,04,17,06,03,0.20
2022,04,17,06,04,0.30
2022,04,17,06,05,0.30
2022,04,17,06,06,0.30
2022,04,17,06,07,0.30
2022,04,17,06,08,0.40
2022,04,17,06,09,0.40
2022,04,17,06,10,0.40
2022,04,17,06,11,0.40
2022,04,17,06,12,0.40
2022,04,17,06,13,0.40
2022,04,17,06,14,0.40
2022,04,17,06,15,0.40
2022,04,17,06,16,0.40
2022,04,17,06,17,0.40
2022,04,17,06,18,0.40
2022,04,17,06,19,0.40
2022,04,17,06,20,0.40
2022,04,17,06,21,0.40
2022,04,17,06,22,0.40
2022,04,17,06,23,0.30
2022,04,17,06,24,0.30
2022,04,17,06,25,0.30
2022,04,17,06,26,0.30
2022,04,17,06,27,0.30
2022,04,17,06,28,0.30
2022,04,17,06,29,0.30
2022,04,17,06,30,0.30
2022,04,17,06,31,0.30
2022,04,17,06,32,0.30
2022,04,17,06,33,0.30
2022,04,17,06,34,0.30
2022,04,17,06,35,0.30
2022,04,17,06,36,0.30
2022,04,17,06,37,0.30
2022,04,17,06,38,0.30
2022,04,17,06,39,0.30
2022,04,17,06,40,0.30
2022,04,17,06,41,0.30
2022,04,17,06,42,0.30
2022,04,17,06,43,0.30
2022,04,17,06,44,0.30
2022,04,17,06,45,0.30
2022,04,17,06,46,0.30
2022,04,17,06,47,0.30
2022,04,17,06,48,0.30
2022,04,17,06,49,0.40
2022,04,17,06,50,0.40
2022,04,17,06,51,0.40
2022,04,17,06,52,0.40
2022,04,17,06,53,0.40
2022,04,17,06,54,0.40
2022,04,17,06,55,0.40
2022,04,17,06,56,0.40
2022,04,17,06,57,0.50
2022,04,17,06,58,0.50
2022,04,17,06,59,0.50
2022,04,17,07,00,0.50
2022,04,17,07,01,0.50
2022,04,17,07,02,0.50
2022,04,17,07,03,0.50
2022,04,17,07,04,0.60
2022,04,17,07,05,0.60
2022,04,17,07,06,0.60
2022,04,17,07,07,0.60
2022,04,17,07,08,0.60
2022,04,17,07,09,0.60
2022,04,17,07,10,0.60
2022,04,17,07,11,0.60
2022,04,17,07,12,0.60
2022,04,17,07,13,0.60
2022,04,17,07,14,0.70
2022,04,17,07,15,0.70
2022,04,17,07,16,0.70
2022,04,17,07,17,0.70
2022,04,17,07,18,0.80
2022,04,17,07,19,0.80
2022,04,17,07,20,0.80
2022,04,17,07,21,0.90
2022,04,17,07,22,0.90
2022,04,17,07,23,1.00
2022,04,17,07,24,1.10
2022,04,17,07,25,1.20
2022,04,17,07,26,1.20
2022,04,17,07,27,1.30
2022,04,17,07,28,1.40
2022,04,17,07,29,1.50
2022,04,17,07,30,1.60
2022,04,17,07,31,1.70
2022,04,17,07,32,1.80
2022,04,17,07,33,1.90
2022,04,17,07,34,2.00
2022,04,17,07,35,2.10
2022,04,17,07,36,2.20
2022,04,17,07,37,2.20
2022,04,17,07,38,2.30
2022,04,17,07,39,2.30
2022,04,17,07,40,2.40
2022,04,17,07,41,2.40
2022,04,17,07,42,2.40
2022,04,17,07,43,2.40
2022,04,17,07,44,2.40
2022,04,17,07,45,2.50
2022,04,17,07,46,2.50
2022,04,17,07,47,2.50
2022,04,17,07,48,2.50
2022,04,17,07,49,2.50
2022,04,17,07,50,2.50
2022,04,17,07,51,2.50
2022,04,17,07,52,2.50
2022,04,17,07,53,2.60
2022,04,17,07,54,2.60
2022,04,17,07,55,2.60
2022,04,17,07,56,2.70
2022,04,17,07,57,2.80
2022,04,17,07,58,2.90
2022,04,17,07,59,2.90
2022,04,17,08,00,3.00
2022,04,17,08,01,3.10
2022,04,17,08,02,3.20
2022,04,17,08,03,3.20
2022,04,17,08,04,3.30
2022,04,17,08,05,3.40
2022,04,17,08,06,3.40
2022,04,17,08,07,3.50
2022,04,17,08,08,3.60
2022,04,17,08,09,3.60
2022,04,17,08,10,3.70
2022,04,17,08,11,3.80
2022,04,17,08,12,3.80
2022,04,17,08,13,3.90
2022,04,17,08,14,3.90
2022,04,17,08,15,4.00
2022,04,17,08,16,4.10
2022,04,17,08,17,4.20
2022,04,17,08,18,4.30
2022,04,17,08,19,4.40
2022,04,17,08,20,4.50
2022,04,17,08,21,4.60
2022,04,17,08,22,4.80
2022,04,17,08,23,4.90
2022,04,17,08,24,5.00
2022,04,17,08,25,5.10
2022,04,17,08,26,5.20
2022,04,17,08,27,5.20
2022,04,17,08,28,5.30
2022,04,17,08,29,5.40
2022,04,17,08,30,5.50
2022,04,17,08,31,5.50
2022,04,17,08,32,5.60
2022,04,17,08,33,5.70
2022,04,17,08,34,5.70
2022,04,17,08,35,5.70
2022,04,17,08,36,5.80
2022,04,17,08,37,5.80
2022,04,17,08,38,5.90
2022,04,17,08,39,5.90
2022,04,17,08,40,6.00
2022,04,17,08,41,6.00
2022,04,17,08,42,6.10
2022,04,17,08,43,6.20
2022,04,17,08,44,6.20
2022,04,17,08,45,6.30
2022,04,17,08,46,6.30
2022,04,17,08,47,6.40
2022,04,17,08,48,6.50
2022,04,17,08,49,6.50
2022,04,17,08,50,6.60
2022,04,17,08,51,6.70
2022,04,17,08,52,6.70
2022,04,17,08,53,6.80
2022,04,17,08,54,6.80
2022,04,17,08,55,6.80
2022,04,17,08,56,6.90
2022,04,17,08,57,6.90
2022,04,17,08,58,6.90
2022,04,17,08,59,7.00
2022,04,17,09,00,7.00
2022,04,17,09,01,6.90
2022,04,17,09,02,6.90
2022,04,17,09,03,6.90
2022,04,17,09,04,6.90
2022,04,17,09,05,7.00
2022,04,17,09,06,7.00
2022,04,17,09,07,7.10
2022,04,17,09,08,7.10
2022,04,17,09,09,7.30
2022,04,17,09,10,7.30
2022,04,17,09,11,7.40
2022,04,17,09,12,7.50
2022,04,17,09,13,7.60
2022,04,17,09,14,7.70
2022,04,17,09,15,7.70
2022,04,17,09,16,7.80
2022,04,17,09,17,7.90
2022,04,17,09,18,8.00
2022,04,17,09,19,8.20
2022,04,17,09,20,8.30
2022,04,17,09,21,8.30
2022,04,17,09,22,8.40
2022,04,17,09,23,8.40
2022,04,17,09,24,8.40
2022,04,17,09,25,8.40
2022,04,17,09,26,8.40
2022,04,17,09,27,8.40
2022,04,17,09,28,8.50
2022,04,17,09,29,8.40
2022,04,17,09,30,8.40
2022,04,17,09,31,8.40
2022,04,17,09,32,8.50
2022,04,17,09,33,8.50
2022,04,17,09,34,8.60
2022,04,17,09,35,8.60
2022,04,17,09,36,8.60
2022,04,17,09,37,8.60
2022,04,17,09,38,8.70
2022,04,17,09,39,8.70
2022,04,17,09,40,8.60
2022,04,17,09,41,8.60
2022,04,17,09,42,8.50
2022,04,17,09,43,8.40
2022,04,17,09,44,8.40
2022,04,17,09,45,8.30
2022,04,17,09,46,8.30
2022,04,17,09,47,8.20
2022,04,17,09,48,8.20
2022,04,17,09,49,8.10
2022,04,17,09,50,8.10
2022,04,17,09,51,8.20
2022,04,17,09,52,8.20
2022,04,17,09,53,8.20
2022,04,17,09,54,8.20
2022,04,17,09,55,8.20
2022,04,17,09,56,8.20
2022,04,17,09,57,8.20
2022,04,17,09,58,8.20
2022,04,17,09,59,8.30
2022,04,17,10,00,8.30
2022,04,17,10,01,8.30
2022,04,17,10,02,8.30
2022,04,17,10,03,8.30
2022,04,17,10,04,8.20
2022,04,17,10,05,8.20
2022,04,17,10,06,8.10
2022,04,17,10,07,8.10
2022,04,17,10,08,8.10
2022,04,17,10,09,8.00
2022,04,17,10,10,8.00
2022,04,17,10,11,8.00
2022,04,17,10,12,7.90
2022,04,17,10,13,7.90
2022,04,17,10,14,7.90
2022,04,17,10,15,7.90
2022,04,17,10,16,7.90
2022,04,17,10,17,8.00
2022,04,17,10,18,8.00
2022,04,17,10,19,8.10
2022,04,17,10,20,8.10
2022,04,17,10,21,8.10
2022,04,17,10,22,8.10
2022,04,17,10,23,8.20
2022,04,17,10,24,8.20
2022,04,17,10,25,8.20
2022,04,17,10,26,8.20
2022,04,17,10,27,8.20
2022,04,17,10,28,8.20
2022,04,17,10,29,8.20
2022,04,17,10,30,8.20
2022,04,17,10,31,8.20
2022,04,17,10,32,8.20
2022,04,17,10,33,8.20
2022,04,17,10,34,8.20
2022,04,17,10,35,8.20
2022,04,17,10,36,8.20
2022,04,17,10,37,8.30
2022,04,17,10,38,8.40
2022,04,17,10,39,8.50
2022,04,17,10,40,8.60
2022,04,17,10,41,8.80
2022,04,17,10,42,8.90
2022,04,17,10,43,9.00
2022,04,17,10,44,9.10
2022,04,17,10,45,9.10
2022,04,17,10,46,9.20
2022,04,17,10,47,9.20
2022,04,17,10,48,9.10
2022,04,17,10,49,9.10
2022,04,17,10,50,9.10
2022,04,17,10,51,9.00
2022,04,17,10,52,9.00
2022,04,17,10,53,9.00
2022,04,17,10,54,9.10
2022,04,17,10,55,9.10
2022,04,17,10,56,9.20
2022,04,17,10,57,9.20
2022,04,17,10,58,9.20
2022,04,17,10,59,9.30
2022,04,17,11,00,9.30
2022,04,17,11,01,9.30
2022,04,17,11,02,9.30
2022,04,17,11,03,9.20
2022,04,17,11,04,9.10
2022,04,17,11,05,9.10
2022,04,17,11,06,9.00
2022,04,17,11,07,8.90
2022,04,17,11,08,8.80
2022,04,17,11,09,8.70
2022,04,17,11,10,8.60
2022,04,17,11,11,8.50
2022,04,17,11,12,8.50
2022,04,17,11,13,8.40
2022,04,17,11,14,8.40
2022,04,17,11,15,8.40
2022,04,17,11,16,8.40
2022,04,17,11,17,8.40
2022,04,17,11,18,8.30
2022,04,17,11,19,8.30
2022,04,17,11,20,8.30
2022,04,17,11,21,8.30
2022,04,17,11,22,8.30
2022,04,17,11,23,8.30
2022,04,17,11,24,8.20
2022,04,17,11,25,8.20
2022,04,17,11,26,8.20
2022,04,17,11,27,8.20
2022,04,17,11,28,8.20
2022,04,17,11,29,8.30
2022,04,17,11,30,8.30
2022,04,17,11,31,8.30
2022,04,17,11,32,8.30
2022,04,17,11,33,8.30
2022,04,17,11,34,8.30
2022,04,17,11,35,8.40
2022,04,17,11,36,8.40
2022,04,17,11,37,8.40
2022,04,17,11,38,8.40
2022,04,17,11,39,8.40
2022,04,17,11,40,8.40
2022,04,17,11,41,8.30
2022,04,17,11,42,8.30
2022,04,17,11,43,8.30
2022,04,17,11,44,8.30
2022,04,17,11,45,8.30
2022,04,17,11,46,8.30
2022,04,17,11,47,8.30
2022,04,17,11,48,8.30
2022,04,17,11,49,8.30
2022,04,17,11,50,8.20
2022,04,17,11,51,8.20
2022,04,17,11,52,8.20
2022,04,17,11,53,8.10
2022,04,17,11,54,8.10
2022,04,17,11,55,8.10
2022,04,17,11,56,8.00
2022,04,17,11,57,8.00
2022,04,17,11,58,8.00
2022,04,17,11,59,8.00
2022,04,17,12,00,8.00
2022,04,17,12,01,8.00
2022,04,17,12,02,8.00
2022,04,17,12,03,8.10
2022,04,17,12,04,8.10
2022,04,17,12,05,8.10
2022,04,17,12,06,8.10
2022,04,17,12,07,8.20
2022,04,17,12,08,8.20
2022,04,17,12,09,8.20
2022,04,17,12,10,8.20
2022,04,17,12,11,8.30
2022,04,17,12,12,8.30
2022,04,17,12,13,8.30
2022,04,17,12,14,8.30
2022,04,17,12,15,8.30
2022,04,17,12,16,8.30
2022,04,17,12,17,8.30
2022,04,17,12,18,8.30
2022,04,17,12,19,8.30
2022,04,17,12,20,8.30
2022,04,17,12,21,8.30
2022,04,17,12,22,8.30
2022,04,17,12,23,8.30
2022,04,17,12,24,8.30
2022,04,17,12,25,8.30
2022,04,17,12,26,8.30
2022,04,17,12,27,8.30
2022,04,17,12,28,8.40
2022,04,17,12,29,8.50
2022,04,17,12,30,8.50
2022,04,17,12,31,8.60
2022,04,17,12,32,8.60
2022,04,17,12,33,8.60
2022,04,17,12,34,8.60
2022,04,17,12,35,8.70
2022,04,17,12,36,8.70
2022,04,17,12,37,8.70
2022,04,17,12,38,8.70
2022,04,17,12,39,8.70
2022,04,17,12,40,8.80
2022,04,17,12,41,8.80
2022,04,17,12,42,8.90
2022,04,17,12,43,8.90
2022,04,17,12,44,9.00
2022,04,17,12,45,9.00
2022,04,17,12,46,9.10
2022,04,17,12,47,9.10
2022,04,17,12,48,9.20
2022,04,17,12,49,9.20
2022,04,17,12,50,9.20
2022,04,17,12,51,9.20
2022,04,17,12,52,9.30
2022,04,17,12,53,9.30
2022,04,17,12,54,9.30
2022,04,17,12,55,9.40
2022,04,17,12,56,9.40
2022,04,17,12,57,9.50
2022,04,17,12,58,9.50
2022,04,17,12,59,9.60
2022,04,17,13,00,9.70
2022,04,17,13,01,9.80
2022,04,17,13,02,9.90
2022,04,17,13,03,10.00
2022,04,17,13,04,10.10
2022,04,17,13,05,10.30
2022,04,17,13,06,10.40
2022,04,17,13,07,10.50
2022,04,17,13,08,10.60
2022,04,17,13,09,10.70
2022,04,17,13,10,10.80
2022,04,17,13,11,10.80
2022,04,17,13,12,10.80
2022,04,17,13,13,10.90
2022,04,17,13,14,11.00
2022,04,17,13,15,11.00
2022,04,17,13,16,11.10
2022,04,17,13,17,11.10
2022,04,17,13,18,11.20
2022,04,17,13,19,11.20
2022,04,17,13,20,11.30
2022,04,17,13,21,11.30
2022,04,17,13,22,11.30
2022,04,17,13,23,11.40
2022,04,17,13,24,11.40
2022,04,17,13,25,11.40
2022,04,17,13,26,11.40
2022,04,17,13,27,11.40
2022,04,17,13,28,11.40
2022,04,17,13,29,11.40
2022,04,17,13,30,11.40
2022,04,17,13,31,11.30
2022,04,17,13,32,11.30
2022,04,17,13,33,11.30
2022,04,17,13,34,11.30
2022,04,17,13,35,11.30
2022,04,17,13,36,11.20
2022,04,17,13,37,11.20
2022,04,17,13,38,11.20
2022,04,17,13,39,11.10
2022,04,17,13,40,11.20
2022,04,17,13,41,11.20
2022,04,17,13,42,11.20
2022,04,17,13,43,11.20
2022,04,17,13,44,11.20
2022,04,17,13,45,11.20
2022,04,17,13,46,11.20
2022,04,17,13,47,11.20
2022,04,17,13,48,11.30
2022,04,17,13,49,11.30
2022,04,17,13,50,11.30
2022,04,17,13,51,11.40
2022,04,17,13,52,11.50
2022,04,17,13,53,11.50
2022,04,17,13,54,11.50
2022,04,17,13,55,11.50
2022,04,17,13,56,11.50
2022,04,17,13,57,11.50
2022,04,17,13,58,11.50
2022,04,17,13,59,11.50
2022,04,17,14,00,11.50
2022,04,17,14,01,11.50
2022,04,17,14,02,11.60
2022,04,17,14,03,11.60
2022,04,17,14,04,11.60
2022,04,17,14,05,11.60
2022,04,17,14,06,11.60
2022,04,17,14,07,11.50
2022,04,17,14,08,11.40
2022,04,17,14,09,11.40
2022,04,17,14,10,11.30
2022,04,17,14,11,11.30
2022,04,17,14,12,11.30
2022,04,17,14,13,11.30
2022,04,17,14,14,11.40
2022,04,17,14,15,11.40
2022,04,17,14,16,11.40
2022,04,17,14,17,11.40
2022,04,17,14,18,11.40
2022,04,17,14,19,11.40
2022,04,17,14,20,11.50
2022,04,17,14,21,11.40
2022,04,17,14,22,11.40
2022,04,17,14,23,11.50
2022,04,17,14,24,11.50
2022,04,17,14,25,11.50
2022,04,17,14,26,11.50
2022,04,17,14,27,11.50
2022,04,17,14,28,11.50
2022,04,17,14,29,11.50
2022,04,17,14,30,11.50
2022,04,17,14,31,11.40
2022,04,17,14,32,11.40
2022,04,17,14,33,11.40
2022,04,17,14,34,11.50
2022,04,17,14,35,11.50
2022,04,17,14,36,11.50
2022,04,17,14,37,11.60
2022,04,17,14,38,11.60
2022,04,17,14,39,11.60
2022,04,17,14,40,11.60
2022,04,17,14,41,11.60
2022,04,17,14,42,11.60
2022,04,17,14,43,11.50
2022,04,17,14,44,11.50
2022,04,17,14,45,11.50
2022,04,17,14,46,11.50
2022,04,17,14,47,11.50
2022,04,17,14,48,11.50
2022,04,17,14,49,11.40
2022,04,17,14,50,11.50
2022,04,17,14,51,11.40
2022,04,17,14,52,11.40
2022,04,17,14,53,11.30
2022,04,17,14,54,11.20
2022,04,17,14,55,11.20
2022,04,17,14,56,11.20
2022,04,17,14,57,11.10
2022,04,17,14,58,11.10
2022,04,17,14,59,11.20
2022,04,17,15,00,11.20
2022,04,17,15,01,11.20
2022,04,17,15,02,11.20
2022,04,17,15,03,11.30
2022,04,17,15,04,11.40
2022,04,17,15,05,11.40
2022,04,17,15,06,11.40
2022,04,17,15,07,11.40
2022,04,17,15,08,11.50
2022,04,17,15,09,11.60
2022,04,17,15,10,11.70
2022,04,17,15,11,11.70
2022,04,17,15,12,11.80
2022,04,17,15,13,11.90
2022,04,17,15,14,11.90
2022,04,17,15,15,11.80
2022,04,17,15,16,11.70
2022,04,17,15,17,11.70
2022,04,17,15,18,11.60
2022,04,17,15,19,11.60
2022,04,17,15,20,11.50
2022,04,17,15,21,11.50
2022,04,17,15,22,11.50
2022,04,17,15,23,11.40
2022,04,17,15,24,11.40
2022,04,17,15,25,11.40
2022,04,17,15,26,11.40
2022,04,17,15,27,11.40
2022,04,17,15,28,11.30
2022,04,17,15,29,11.30
2022,04,17,15,30,11.30
2022,04,17,15,31,11.30
2022,04,17,15,32,11.30
2022,04,17,15,33,11.30
2022,04,17,15,34,11.30
2022,04,17,15,35,11.40
2022,04,17,15,36,11.40
2022,04,17,15,37,11.40
2022,04,17,15,38,11.50
2022,04,17,15,39,11.50
2022,04,17,15,40,11.50
2022,04,17,15,41,11.60
2022,04,17,15,42,11.60
2022,04,17,15,43,11.50
2022,04,17,15,44,11.40
2022,04,17,15,45,11.40
2022,04,17,15,46,11.40
2022,04,17,15,47,11.40
2022,04,17,15,48,11.40
2022,04,17,15,49,11.40
2022,04,17,15,50,11.40
2022,04,17,15,51,11.40
2022,04,17,15,52,11.40
2022,04,17,15,53,11.50
2022,04,17,15,54,11.50
2022,04,17,15,55,11.50
2022,04,17,15,56,11.50
2022,04,17,15,57,11.40
2022,04,17,15,58,11.40
2022,04,17,15,59,11.40
2022,04,17,16,00,11.30
2022,04,17,16,01,11.20
2022,04,17,16,02,11.20
2022,04,17,16,03,11.20
2022,04,17,16,04,11.20
2022,04,17,16,05,11.20
2022,04,17,16,06,11.20
2022,04,17,16,07,11.30
2022,04,17,16,08,11.30
2022,04,17,16,09,11.30
2022,04,17,16,10,11.40
2022,04,17,16,11,11.40
2022,04,17,16,12,11.40
2022,04,17,16,13,11.40
2022,04,17,16,14,11.40
2022,04,17,16,15,11.30
2022,04,17,16,16,11.20
2022,04,17,16,17,11.10
2022,04,17,16,18,11.10
2022,04,17,16,19,11.10
2022,04,17,16,20,11.10
2022,04,17,16,21,11.10
2022,04,17,16,22,11.10
2022,04,17,16,23,11.10
2022,04,17,16,24,11.10
2022,04,17,16,25,11.10
2022,04,17,16,26,11.20
2022,04,17,16,27,11.20
2022,04,17,16,28,11.20
2022,04,17,16,29,11.20
2022,04,17,16,30,11.20
2022,04,17,16,31,11.30
2022,04,17,16,32,11.30
2022,04,17,16,33,11.30
2022,04,17,16,34,11.30
2022,04,17,16,35,11.30
2022,04,17,16,36,11.30
2022,04,17,16,37,11.40
2022,04,17,16,38,11.40
2022,04,17,16,39,11.40
2022,04,17,16,40,11.40
2022,04,17,16,41,11.40
2022,04,17,16,42,11.50
2022,04,17,16,43,11.50
2022,04,17,16,44,11.50
2022,04,17,16,45,11.60
2022,04,17,16,46,11.60
2022,04,17,16,47,11.60
2022,04,17,16,48,11.60
2022,04,17,16,49,11.70
2022,04,17,16,50,11.70
2022,04,17,16,51,11.70
2022,04,17,16,52,11.70
2022,04,17,16,53,11.60
2022,04,17,16,54,11.60
2022,04,17,16,55,11.60
2022,04,17,16,56,11.60
2022,04,17,16,57,11.60
2022,04,17,16,58,11.60
2022,04,17,16,59,11.60
2022,04,17,17,00,11.60
2022,04,17,17,01,11.70
2022,04,17,17,02,11.70
2022,04,17,17,03,11.70
2022,04,17,17,04,11.70
2022,04,17,17,05,11.70
2022,04,17,17,06,11.70
2022,04,17,17,07,11.70
2022,04,17,17,08,11.60
2022,04,17,17,09,11.60
2022,04,17,17,10,11.60
2022,04,17,17,11,11.60
2022,04,17,17,12,11.60
2022,04,17,17,13,11.60
2022,04,17,17,14,11.60
2022,04,17,17,15,11.60
2022,04,17,17,16,11.60
2022,04,17,17,17,11.70
2022,04,17,17,18,11.70
2022,04,17,17,19,11.60
2022,04,17,17,20,11.60
2022,04,17,17,21,11.50
2022,04,17,17,22,11.40
2022,04,17,17,23,11.30
2022,04,17,17,24,11.30
2022,04,17,17,25,11.20
2022,04,17,17,26,11.10
2022,04,17,17,27,11.10
2022,04,17,17,28,11.00
2022,04,17,17,29,11.00
2022,04,17,17,30,10.90
2022,04,17,17,31,10.90
2022,04,17,17,32,10.90
2022,04,17,17,33,10.90
2022,04,17,17,34,10.90
2022,04,17,17,35,10.80
2022,04,17,17,36,10.80
2022,04,17,17,37,10.80
2022,04,17,17,38,10.80
2022,04,17,17,39,10.90
2022,04,17,17,40,10.90
2022,04,17,17,41,10.90
2022,04,17,17,42,10.80
2022,04,17,17,43,10.80
2022,04,17,17,44,10.80
2022,04,17,17,45,10.80
2022,04,17,17,46,10.80
2022,04,17,17,47,10.80
2022,04,17,17,48,10.80